{"data":{"norad_id":66371,"intl_designator":"2025-254Z","name":"STARLINK-35804","alt_names":[],"object_type":"PAYLOAD","status":"ACTIVE","operator":null,"country":"US","launch_date":"2025-11-06","launch_site_code":"AFWTR","launch_vehicle":null,"mission":null,"orbit_class":"UNKNOWN","rcs_meters":null,"size_class":null,"mass_kg":null,"dimensions":null,"purposes":["comms"],"wikipedia_slug":null,"has_3d_model":false,"image_url":null,"decayed_at":null,"tle_current":{"epoch":"2026-09-20T14:01:12.879840Z","epoch_age_seconds":86164,"freshness":"FRESH","line1":"1 66371U 25254Z   26263.58417685  .00017477  00000+0  52709-3 0  9995","line2":"2 66371  53.1582  42.9782 0001867  48.4836 311.6327 15.34405364 48871","mean_motion":15.34405364,"eccentricity":0.0001867,"inclination_deg":53.1582,"raan_deg":42.9782,"arg_perigee_deg":48.4836,"mean_anomaly_deg":311.6327,"bstar":0.00052709,"rev_number":4887,"period_min":93.847430006768,"perigee_km":461.41011541883,"apogee_km":463.96447921145,"semimajor_km":6840.8242973151,"source":"CELESTRAK","updated_at":"2026-09-21T09:00:35.883909Z"}}}